Regional Weather Roundup
Issued by NWS

Home | Current Version | Previous Version | Graphics & Text | Print | Product List | Glossary On
Versions: 1 2 3 4 5 6 7 8 9 10 11 12 13 14 15 16 17 18 19 20 21 22 23 24 25 26 27 28 29 30 31 32 33 34 35 36 37 38 39 40 41 42 43 44 45 46 47 48 49 50
000
ASUS43 KIND 281409
RWRIN

WEATHER ROUNDUP FOR INDIANA
NATIONAL WEATHER SERVICE INDIANAPOLIS IN
1000 AM EDT FRI AUG 28 2015

NOTE: "FAIR" INDICATES FEW OR NO CLOUDS BELOW 12,000 FEET WITH NO
SIGNIFICANT WEATHER AND/OR OBSTRUCTIONS TO VISIBILITY.

* - STATION DOES NOT REPORT WEATHER SUCH AS PRECIPITATION OR FOG.

+ - STATION NOT QUALITY CONTROLLED BY THE NATIONAL WEATHER SERVICE.
    USE DATA WITH CAUTION...ESPECIALLY DEWPOINT AND RELATIVE
    HUMIDITY OBSERVATIONS.

INZ001>003-010>013-019-020-281500-
NORTHWEST INDIANA

CITY           SKY/WX    TMP DP  RH WIND       PRES   REMARKS
GARY /AIRPORT/ MOSUNNY   66  57  72 S7        30.15F
KNOX *+        SUNNY     64  57  77 SW8       30.17R
LA PORTE +     SUNNY     65  64  97 S5        30.18S
MICHIGAN CITY+ MOSUNNY   64  61  88 S3        30.17S
MONTICELLO +   SUNNY     65  60  82 S6        30.18R
RENSSELAER +   MOSUNNY   66  63  88 S7        30.17S
VALPARAISO     MOSUNNY   64  59  83 S5        30.17S

$$

LMZ046-743>745-281500-
SOUTHERN LAKE MICHIGAN

STATION/POSITION TIME  TEMP    WIND        PRES    WAVE
                       AIR SEA DIR/SP/G            HT
                 (UTC) (F)     (DEG/KT/KT) (MB)    (FT)
BURNS HARBOR     1300   65     180/  6/ 11 1021.3R
MICHIGAN CITY    1300   62     130/ 11/ 12   N/A
5NW MICH CITY    1400   65 70  190/  8/ 12   N/A     1

$$

INZ004-005-014>016-021>024-281500-
NORTH CENTRAL INDIANA

CITY           SKY/WX    TMP DP  RH WIND       PRES   REMARKS
GOSHEN         SUNNY     65  59  81 S6        30.19R
LOGANSPORT +   SUNNY     64  55  72 S3        30.19S
PERU/GRISSOM   SUNNY     67  59  74 S6        30.18R
ROCHESTER +    SUNNY     70  59  68 SW6       30.19R
SOUTH BEND     SUNNY     64  58  80 S6        30.18R
WARSAW +       SUNNY     64  57  77 CALM      30.20R

$$

INZ006>009-017-018-025>027-281500-
NORTHEAST INDIANA

CITY           SKY/WX    TMP DP  RH WIND       PRES   REMARKS
ANGOLA *+      SUNNY     63  54  72 CALM      30.20S
AUBURN +       SUNNY     63  57  82 CALM      30.21R
FORT WAYNE     MOSUNNY   64  59  83 S3        30.20S
HUNTINGTON +   SUNNY     64  56  74 S5        30.20R

$$

INZ028-029-035-036-043>045-051>053-281500-
WEST CENTRAL INDIANA

CITY           SKY/WX    TMP DP  RH WIND       PRES   REMARKS
CRAWFORDSVL +  SUNNY     65  57  74 S6        30.19R
GREENCASTLE +  SUNNY     64  55  72 S5        30.20R
LAFAYETTE      SUNNY     66  58  75 S6        30.18R
TERRE HAUTE    MOSUNNY   68  59  73 SE3       30.17S

$$

INZ030>032-037>040-046>048-054>057-064-065-281500-
CENTRAL INDIANA

CITY           SKY/WX    TMP DP  RH WIND       PRES   REMARKS
ANDERSON       SUNNY     66  55  68 CALM      30.21
COLUMBUS       SUNNY     64  57  77 CALM      30.19F
FRANKFORT +    SUNNY     68  65  90 CALM      30.20R
GREENWOOD *+   SUNNY     66  55  68 S3        30.20S
INDIANAPOLIS   MOSUNNY   67  56  67 S5        30.18R
-EAGLE CREEK   SUNNY     68  57  68 S6        30.18S
KOKOMO *+      SUNNY     66  59  77 S6        30.20R
MARION +       SUNNY     65  53  65 SW5       30.20R
MT COMFORT *+  SUNNY     68  59  73 S5        30.19S
SHELBYVILLE    SUNNY     69  60  73 CALM      30.19S
ZIONSVILLE +   SUNNY     68  59  73 S5        30.21R

$$

INZ033-034-041-042-049-050-058-059-281500-
EAST CENTRAL INDIANA

CITY           SKY/WX    TMP DP  RH WIND       PRES   REMARKS
MUNCIE         SUNNY     66  57  72 SW7       30.20R

$$

INZ060-061-067>069-081>083-085>088-281500-
SOUTHWEST INDIANA

CITY           SKY/WX    TMP DP  RH WIND       PRES   REMARKS
EVANSVILLE     SUNNY     68  59  73 CALM      30.15F
HUNTINGBURG *+ SUNNY     66  59  77 E5        30.16F
WASHINGTON +   SUNNY     68  57  69 SE3       30.16F

$$

INZ062-063-066-070>080-084-089>092-281500-
SOUTH CENTRAL AND SOUTHEAST INDIANA

CITY           SKY/WX    TMP DP  RH WIND       PRES   REMARKS
BLOOMINGTON    SUNNY     68  60  75 SE5       30.18F
MADISON *+     SUNNY     68  59  73 SE3       30.21S
NORTH VERNON + SUNNY     68  59  73 CALM      30.20S
SEYMOUR +      SUNNY     68  57  68 CALM      30.19S

$$




USA.gov is the U.S. government's official web portal to all federal, state and local government web resources and services.